QFA926 YMML-YMHB

Flight info

Callsign QFA926
Flight time 1h 3m
Altitude 33000
Route ML H169 IRSOM V33 TASUM
Aircraft A320/M-SDE3FGHIRWY/LB1

Departure

Time 2026-05-08 10:11
Airport Melbourne Airport (YMML)

Arrival

Time 2026-05-08 11:14
Airport Hobart International Airport (YMHB)
Time Latitude Longitude Altitude Speed Heading
2026-05-08 09:42 -37.66914 144.84586 357 ft 0 kts 360°
2026-05-08 09:57 -37.66934 144.84586 358 ft 1 kts 359°
2026-05-08 09:57 -37.66945 144.84586 364 ft 1 kts 359°
2026-05-08 09:57 -37.66955 144.84587 359 ft 1 kts 358°
2026-05-08 09:58 -37.66965 144.84587 361 ft 1 kts 357°
2026-05-08 09:58 -37.66975 144.84588 360 ft 1 kts 356°
2026-05-08 09:58 -37.66985 144.84589 359 ft 1 kts 339°
2026-05-08 09:58 -37.66994 144.84594 362 ft 1 kts 313°
2026-05-08 09:59 -37.67001 144.84603 361 ft 1 kts 288°
2026-05-08 09:59 -37.67003 144.84616 361 ft 1 kts 263°
2026-05-08 09:59 -37.67003 144.84617 361 ft 0 kts 259°
2026-05-08 10:02 -37.67004 144.84615 356 ft 1 kts 259°
2026-05-08 10:02 -37.67006 144.84595 361 ft 2 kts 259°
2026-05-08 10:03 -37.67008 144.84583 361 ft 2 kts 259°
2026-05-08 10:03 -37.67010 144.84568 363 ft 1 kts 259°
2026-05-08 10:03 -37.67011 144.84563 362 ft 2 kts 259°
2026-05-08 10:03 -37.67013 144.84534 360 ft 5 kts 266°
2026-05-08 10:04 -37.67018 144.84479 363 ft 8 kts 254°
2026-05-08 10:04 -37.67045 144.84406 366 ft 11 kts 255°
2026-05-08 10:04 -37.67058 144.84305 369 ft 13 kts 266°
2026-05-08 10:04 -37.66995 144.84232 372 ft 15 kts 350°
2026-05-08 10:05 -37.66886 144.84211 374 ft 17 kts 351°
2026-05-08 10:05 -37.66763 144.84188 375 ft 19 kts 351°
2026-05-08 10:05 -37.66623 144.84166 375 ft 22 kts
2026-05-08 10:05 -37.66525 144.84326 363 ft 29 kts 79°
2026-05-08 10:06 -37.66490 144.84616 349 ft 34 kts 81°
2026-05-08 10:06 -37.66479 144.84700 335 ft 0 kts 81°
2026-05-08 10:06 -37.66470 144.84731 332 ft 7 kts 57°
2026-05-08 10:07 -37.66464 144.84739 334 ft 0 kts 51°
2026-05-08 10:07 -37.66446 144.84764 330 ft 8 kts 40°
2026-05-08 10:07 -37.66382 144.84781 330 ft 11 kts
2026-05-08 10:07 -37.66295 144.84781 327 ft 14 kts 357°
2026-05-08 10:08 -37.66227 144.84749 332 ft 6 kts 304°
2026-05-08 10:08 -37.66222 144.84717 334 ft 0 kts 274°
2026-05-08 10:10 -37.66221 144.84700 334 ft 17 kts 274°
2026-05-08 10:10 -37.66198 144.84248 366 ft 83 kts 275°
2026-05-08 10:11 -37.66141 144.83296 406 ft 132 kts 274°
2026-05-08 10:11 -37.66051 144.81975 521 ft 164 kts 272°
2026-05-08 10:11 -37.65944 144.80553 1094 ft 162 kts 273°
2026-05-08 10:11 -37.65839 144.79155 1866 ft 159 kts 269°
2026-05-08 10:12 -37.65764 144.77734 2310 ft 170 kts 267°
2026-05-08 10:12 -37.65711 144.76156 2632 ft 189 kts 266°
2026-05-08 10:12 -37.65663 144.74395 2911 ft 215 kts 267°
2026-05-08 10:12 -37.65536 144.72396 3259 ft 241 kts 269°
2026-05-08 10:13 -37.65417 144.70217 3831 ft 255 kts 265°
2026-05-08 10:13 -37.65636 144.68051 4794 ft 245 kts 244°
2026-05-08 10:13 -37.66674 144.66418 5686 ft 244 kts 211°
2026-05-08 10:13 -37.68235 144.65526 6541 ft 250 kts 200°
2026-05-08 10:14 -37.69897 144.64750 7261 ft 258 kts 200°
2026-05-08 10:14 -37.71591 144.63961 8112 ft 260 kts 200°
2026-05-08 10:14 -37.73326 144.63305 8969 ft 262 kts 188°
2026-05-08 10:14 -37.75139 144.63658 9720 ft 272 kts 157°
2026-05-08 10:15 -37.76705 144.65066 10478 ft 284 kts 142°
2026-05-08 10:15 -37.78287 144.66701 10716 ft 305 kts 150°
2026-05-08 10:15 -37.80174 144.68097 10943 ft 324 kts 154°
2026-05-08 10:15 -37.82188 144.69461 11506 ft 331 kts 155°
2026-05-08 10:16 -37.84227 144.70863 12149 ft 336 kts 153°
2026-05-08 10:16 -37.86274 144.72336 12830 ft 340 kts 152°
2026-05-08 10:16 -37.88298 144.73841 13486 ft 343 kts 151°
2026-05-08 10:16 -37.90388 144.75421 14144 ft 347 kts 151°
2026-05-08 10:17 -37.92438 144.76973 14714 ft 350 kts 151°
2026-05-08 10:17 -37.94531 144.78559 15288 ft 353 kts 150°
2026-05-08 10:17 -37.96653 144.80168 15871 ft 357 kts 151°
2026-05-08 10:17 -37.98791 144.81788 16452 ft 360 kts 151°
2026-05-08 10:18 -38.00952 144.83422 17005 ft 363 kts 151°
2026-05-08 10:18 -38.03134 144.85069 17588 ft 367 kts 151°
2026-05-08 10:18 -38.05339 144.86730 18161 ft 370 kts 151°
2026-05-08 10:18 -38.07560 144.88407 18716 ft 373 kts 150°
2026-05-08 10:19 -38.09802 144.90103 19239 ft 376 kts 150°
2026-05-08 10:19 -38.12057 144.91813 19785 ft 379 kts 150°
2026-05-08 10:19 -38.14328 144.93535 20342 ft 381 kts 150°
2026-05-08 10:20 -38.18909 144.97010 21439 ft 385 kts 150°
2026-05-08 10:20 -38.21218 144.98764 21961 ft 387 kts 150°
2026-05-08 10:20 -38.23536 145.00528 22451 ft 390 kts 150°
2026-05-08 10:20 -38.25869 145.02304 22945 ft 392 kts 150°
2026-05-08 10:21 -38.28215 145.04090 23409 ft 394 kts 150°
2026-05-08 10:21 -38.30576 145.05887 23874 ft 396 kts 150°
2026-05-08 10:21 -38.32944 145.07691 24200 ft 398 kts 150°
2026-05-08 10:21 -38.35320 145.09503 24283 ft 398 kts 150°
2026-05-08 10:22 -38.37693 145.11318 24308 ft 398 kts 150°
2026-05-08 10:22 -38.40063 145.13131 24303 ft 397 kts 150°
2026-05-08 10:22 -38.42437 145.14948 24307 ft 397 kts 150°
2026-05-08 10:22 -38.44805 145.16762 24299 ft 397 kts 150°
2026-05-08 10:23 -38.47170 145.18578 24301 ft 397 kts 150°
2026-05-08 10:23 -38.49536 145.20390 24302 ft 396 kts 151°
2026-05-08 10:23 -38.52017 145.21895 24299 ft 395 kts 160°
2026-05-08 10:23 -38.54618 145.23036 24302 ft 395 kts 161°
2026-05-08 10:24 -38.57223 145.24174 24297 ft 395 kts 161°
2026-05-08 10:24 -38.59825 145.25318 24296 ft 395 kts 161°
2026-05-08 10:24 -38.62423 145.26467 24300 ft 395 kts 161°
2026-05-08 10:24 -38.65023 145.27620 24291 ft 395 kts 161°
2026-05-08 10:25 -38.67619 145.28771 24297 ft 395 kts 161°
2026-05-08 10:25 -38.70211 145.29916 24296 ft 395 kts 161°
2026-05-08 10:25 -38.72813 145.31061 24294 ft 395 kts 161°
2026-05-08 10:25 -38.75410 145.32201 24292 ft 395 kts 161°
2026-05-08 10:26 -38.78004 145.33342 24289 ft 395 kts 161°
2026-05-08 10:26 -38.80598 145.34486 24287 ft 394 kts 161°
2026-05-08 10:26 -38.83193 145.35630 24287 ft 394 kts 161°
2026-05-08 10:26 -38.85790 145.36779 24291 ft 394 kts 161°
2026-05-08 10:27 -38.88377 145.37931 24282 ft 394 kts 161°
2026-05-08 10:27 -38.90974 145.39090 24288 ft 394 kts 161°
2026-05-08 10:27 -38.93579 145.40251 24605 ft 397 kts 161°
2026-05-08 10:27 -38.96194 145.41412 25032 ft 398 kts 161°
2026-05-08 10:28 -38.98821 145.42577 25425 ft 400 kts 161°
2026-05-08 10:28 -39.01456 145.43754 25804 ft 401 kts 161°
2026-05-08 10:28 -39.04092 145.44930 26173 ft 402 kts 161°
2026-05-08 10:28 -39.06743 145.46112 26542 ft 404 kts 161°
2026-05-08 10:29 -39.09397 145.47294 26901 ft 405 kts 161°
2026-05-08 10:29 -39.12070 145.48487 27274 ft 406 kts 161°
2026-05-08 10:29 -39.14744 145.49682 27640 ft 408 kts 161°
2026-05-08 10:29 -39.17425 145.50882 28003 ft 409 kts 161°
2026-05-08 10:30 -39.20120 145.52090 28351 ft 411 kts 160°
2026-05-08 10:30 -39.22820 145.53299 28747 ft 411 kts 161°
2026-05-08 10:30 -39.25524 145.54513 29138 ft 411 kts 161°
2026-05-08 10:30 -39.28220 145.55723 29646 ft 409 kts 161°
2026-05-08 10:31 -39.30898 145.56922 30183 ft 406 kts 161°
2026-05-08 10:31 -39.33563 145.58117 30625 ft 404 kts 160°
2026-05-08 10:31 -39.36211 145.59309 31062 ft 402 kts 160°
2026-05-08 10:31 -39.38845 145.60499 31498 ft 400 kts 160°
2026-05-08 10:32 -39.41461 145.61678 31947 ft 398 kts 160°
2026-05-08 10:32 -39.44074 145.62857 32391 ft 396 kts 160°
2026-05-08 10:32 -39.46661 145.64029 32838 ft 394 kts 160°
2026-05-08 10:32 -39.49246 145.65203 33193 ft 393 kts 160°
2026-05-08 10:33 -39.51823 145.66371 33263 ft 395 kts 160°
2026-05-08 10:33 -39.57045 145.68734 33262 ft 399 kts 160°
2026-05-08 10:34 -39.62294 145.71108 33261 ft 399 kts 160°
2026-05-08 10:34 -39.67530 145.73486 33256 ft 398 kts 160°
2026-05-08 10:35 -39.72757 145.75856 33253 ft 398 kts 160°
2026-05-08 10:35 -39.77988 145.78247 33245 ft 398 kts 160°
2026-05-08 10:36 -39.83223 145.80635 33243 ft 399 kts 160°
2026-05-08 10:36 -39.88459 145.83029 33263 ft 399 kts 160°
2026-05-08 10:37 -39.93698 145.85421 33262 ft 399 kts 160°
2026-05-08 10:37 -39.98927 145.87825 33253 ft 399 kts 160°
2026-05-08 10:38 -40.04159 145.90235 33241 ft 399 kts 161°
2026-05-08 10:38 -40.09408 145.92669 33219 ft 400 kts 161°
2026-05-08 10:39 -40.14655 145.95114 33222 ft 401 kts 161°
2026-05-08 10:39 -40.19926 145.97564 33230 ft 402 kts 161°
2026-05-08 10:40 -40.25198 146.00007 33225 ft 402 kts 161°
2026-05-08 10:40 -40.30477 146.02467 33231 ft 403 kts 161°
2026-05-08 10:41 -40.35757 146.04932 33227 ft 403 kts 161°
2026-05-08 10:41 -40.41047 146.07413 33229 ft 403 kts 161°
2026-05-08 10:42 -40.46331 146.09896 33222 ft 404 kts 161°
2026-05-08 10:42 -40.51622 146.12382 33241 ft 404 kts 161°
2026-05-08 10:43 -40.56905 146.14866 33236 ft 403 kts 161°
2026-05-08 10:43 -40.62189 146.17352 33236 ft 403 kts 161°
2026-05-08 10:44 -40.67469 146.19836 33230 ft 403 kts 161°
2026-05-08 10:44 -40.71856 146.21911 33240 ft 403 kts 161°
2026-05-08 10:45 -40.77138 146.24408 33231 ft 403 kts 161°
2026-05-08 10:45 -40.82411 146.26921 33231 ft 403 kts 161°
2026-05-08 10:46 -40.87686 146.29431 33224 ft 403 kts 161°
2026-05-08 10:46 -40.92957 146.31924 33235 ft 403 kts 162°
2026-05-08 10:47 -40.98230 146.34430 33231 ft 402 kts 161°
2026-05-08 10:47 -41.03491 146.36948 33224 ft 402 kts 161°
2026-05-08 10:48 -41.08743 146.39468 33220 ft 401 kts 162°
2026-05-08 10:48 -41.13999 146.41975 33251 ft 401 kts 162°
2026-05-08 10:49 -41.19152 146.44756 33226 ft 401 kts 157°
2026-05-08 10:49 -41.24193 146.47936 33228 ft 401 kts 157°
2026-05-08 10:50 -41.29213 146.51103 33221 ft 400 kts 157°
2026-05-08 10:50 -41.34243 146.54286 33234 ft 400 kts 157°
2026-05-08 10:51 -41.39272 146.57473 33220 ft 400 kts 157°
2026-05-08 10:51 -41.44297 146.60653 33215 ft 400 kts 158°
2026-05-08 10:52 -41.49341 146.63851 32852 ft 402 kts 157°
2026-05-08 10:52 -41.51873 146.65459 32596 ft 403 kts 157°
2026-05-08 10:52 -41.54407 146.67070 32339 ft 404 kts 157°
2026-05-08 10:52 -41.56948 146.68686 31994 ft 405 kts 157°
2026-05-08 10:53 -41.59504 146.70313 31150 ft 408 kts 157°
2026-05-08 10:53 -41.62074 146.71949 30341 ft 411 kts 157°
2026-05-08 10:53 -41.64612 146.73574 29754 ft 407 kts 157°
2026-05-08 10:53 -41.67149 146.75206 29141 ft 403 kts 157°
2026-05-08 10:54 -41.69661 146.76831 28516 ft 399 kts 157°
2026-05-08 10:54 -41.72155 146.78444 27940 ft 396 kts 157°
2026-05-08 10:54 -41.74629 146.80042 27339 ft 393 kts 157°
2026-05-08 10:54 -41.77078 146.81627 26756 ft 391 kts 157°
2026-05-08 10:55 -41.79520 146.83209 26170 ft 389 kts 157°
2026-05-08 10:55 -41.81950 146.84783 25584 ft 387 kts 157°
2026-05-08 10:55 -41.84364 146.86347 24997 ft 384 kts 157°
2026-05-08 10:55 -41.86796 146.87924 24433 ft 382 kts 157°
2026-05-08 10:56 -41.89181 146.89476 23877 ft 381 kts 157°
2026-05-08 10:56 -41.91536 146.91010 23257 ft 380 kts 157°
2026-05-08 10:56 -41.93905 146.92554 22743 ft 377 kts 157°
2026-05-08 10:56 -41.96253 146.94080 22243 ft 374 kts 157°
2026-05-08 10:57 -41.98592 146.95601 21724 ft 372 kts 157°
2026-05-08 10:57 -42.00910 146.97113 21237 ft 370 kts 157°
2026-05-08 10:57 -42.05512 147.00124 20263 ft 366 kts 157°
2026-05-08 10:58 -42.07799 147.01626 19764 ft 364 kts 157°
2026-05-08 10:58 -42.10073 147.03121 19259 ft 363 kts 157°
2026-05-08 10:58 -42.12333 147.04603 18756 ft 361 kts 157°
2026-05-08 10:58 -42.14585 147.06078 18204 ft 360 kts 157°
2026-05-08 10:59 -42.16796 147.07647 17655 ft 360 kts 150°
2026-05-08 10:59 -42.18770 147.09726 17120 ft 361 kts 141°
2026-05-08 10:59 -42.20609 147.12011 16574 ft 358 kts 141°
2026-05-08 10:59 -42.22435 147.14281 16041 ft 356 kts 141°
2026-05-08 11:00 -42.24250 147.16534 15500 ft 353 kts 141°
2026-05-08 11:00 -42.26051 147.18772 14962 ft 351 kts 141°
2026-05-08 11:00 -42.27842 147.20999 14427 ft 349 kts 141°
2026-05-08 11:00 -42.29626 147.23219 13862 ft 347 kts 141°
2026-05-08 11:01 -42.31413 147.25394 13296 ft 343 kts 145°
2026-05-08 11:01 -42.33386 147.27125 12683 ft 337 kts 154°
2026-05-08 11:01 -42.35444 147.28648 12035 ft 337 kts 154°
2026-05-08 11:01 -42.37494 147.30171 11397 ft 336 kts 154°
2026-05-08 11:02 -42.39536 147.31694 10779 ft 335 kts 154°
2026-05-08 11:02 -42.43429 147.34616 10490 ft 305 kts 154°
2026-05-08 11:02 -42.45239 147.35979 10365 ft 287 kts 154°
2026-05-08 11:03 -42.46917 147.37245 10139 ft 268 kts 155°
2026-05-08 11:03 -42.48520 147.38450 9667 ft 259 kts 155°
2026-05-08 11:03 -42.50084 147.39621 9536 ft 257 kts 155°
2026-05-08 11:03 -42.51649 147.40789 9404 ft 257 kts 155°
2026-05-08 11:04 -42.53210 147.41957 9185 ft 256 kts 155°
2026-05-08 11:04 -42.54765 147.43125 8901 ft 254 kts 155°
2026-05-08 11:04 -42.56308 147.44288 8591 ft 253 kts 155°
2026-05-08 11:04 -42.57846 147.45446 8283 ft 252 kts 155°
2026-05-08 11:05 -42.59348 147.46671 7972 ft 253 kts 147°
2026-05-08 11:05 -42.60707 147.48193 7667 ft 253 kts 145°
2026-05-08 11:05 -42.62056 147.49727 7357 ft 252 kts 145°
2026-05-08 11:05 -42.63400 147.51255 7051 ft 251 kts 145°
2026-05-08 11:06 -42.64734 147.52777 6749 ft 251 kts 145°
2026-05-08 11:06 -42.66065 147.54297 6435 ft 249 kts 145°
2026-05-08 11:06 -42.67363 147.55782 6194 ft 244 kts 145°
2026-05-08 11:06 -42.68633 147.57235 6039 ft 234 kts 145°
2026-05-08 11:07 -42.69878 147.58658 5956 ft 224 kts 146°
2026-05-08 11:07 -42.71071 147.60018 5949 ft 230 kts 146°
2026-05-08 11:07 -42.72304 147.61416 5657 ft 230 kts 146°
2026-05-08 11:07 -42.73532 147.62808 5380 ft 230 kts 146°
2026-05-08 11:08 -42.74761 147.64205 5117 ft 231 kts 146°
2026-05-08 11:08 -42.75992 147.65606 4842 ft 231 kts 146°
2026-05-08 11:08 -42.77224 147.67013 4571 ft 230 kts 146°
2026-05-08 11:08 -42.78440 147.68404 4311 ft 227 kts 146°
2026-05-08 11:09 -42.79637 147.69778 4052 ft 223 kts 147°
2026-05-08 11:09 -42.80909 147.70873 3801 ft 210 kts 171°
2026-05-08 11:09 -42.82292 147.70909 3583 ft 195 kts 200°
2026-05-08 11:09 -42.83440 147.70056 3322 ft 186 kts 218°
2026-05-08 11:10 -42.84494 147.69035 3061 ft 185 kts 218°
2026-05-08 11:10 -42.85536 147.68033 2860 ft 180 kts 218°
2026-05-08 11:10 -42.86552 147.67056 2595 ft 177 kts 218°
2026-05-08 11:10 -42.87495 147.66038 2480 ft 164 kts 227°
2026-05-08 11:11 -42.88169 147.64908 2472 ft 145 kts 239°
2026-05-08 11:11 -42.88615 147.63720 2512 ft 136 kts 249°
2026-05-08 11:11 -42.88874 147.62479 2511 ft 135 kts 258°
2026-05-08 11:11 -42.88959 147.61199 2509 ft 136 kts 268°
2026-05-08 11:12 -42.88864 147.59918 2485 ft 137 kts 277°
2026-05-08 11:12 -42.88616 147.58646 2028 ft 143 kts 286°
2026-05-08 11:12 -42.88077 147.57409 1340 ft 160 kts 307°
2026-05-08 11:12 -42.87268 147.56362 870 ft 160 kts 316°
2026-05-08 11:13 -42.86462 147.55365 517 ft 148 kts 313°
2026-05-08 11:13 -42.85850 147.54295 426 ft 140 kts 309°
2026-05-08 11:13 -42.85191 147.53334 264 ft 138 kts 315°
2026-05-08 11:13 -42.84526 147.52410 68 ft 136 kts 316°
2026-05-08 11:14 -42.83901 147.51564 18 ft 106 kts 315°
2026-05-08 11:14 -42.83478 147.50994 18 ft 69 kts 315°
2026-05-08 11:14 -42.83193 147.50606 16 ft 47 kts 313°
2026-05-08 11:14 -42.83001 147.50321 20 ft 37 kts 316°
2026-05-08 11:15 -42.82934 147.50180 20 ft 0 kts 292°
2026-05-08 11:15 -42.82922 147.50141 22 ft 8 kts 292°
2026-05-08 11:15 -42.82887 147.50069 22 ft 11 kts 339°
2026-05-08 11:15 -42.82861 147.50160 22 ft 16 kts 127°
2026-05-08 11:16 -42.82955 147.50281 20 ft 21 kts 137°
2026-05-08 11:16 -42.83066 147.50436 20 ft 26 kts 135°
2026-05-08 11:16 -42.83202 147.50623 16 ft 28 kts 133°
2026-05-08 11:16 -42.83280 147.50693 14 ft 12 kts 204°
2026-05-08 11:17 -42.83344 147.50607 16 ft 14 kts 226°
2026-05-08 11:17 -42.83430 147.50565 18 ft 15 kts 156°
2026-05-08 11:17 -42.83510 147.50670 22 ft 17 kts 134°
2026-05-08 11:17 -42.83600 147.50655 19 ft 17 kts 224°
2026-05-08 11:18 -42.83651 147.50583 21 ft 4 kts 218°
2026-05-08 11:18 -42.83660 147.50576 19 ft 0 kts 210°
2026-05-08 11:18 -42.85322 147.53515 304 ft 137 kts 315°
2026-05-08 11:19 -42.85410 147.53639 323 ft 127 kts 314°
2026-05-08 11:19 -42.85376 147.53591 317 ft 138 kts 314°
2026-05-08 11:19 -42.84705 147.52670 118 ft 136 kts 315°
2026-05-08 11:19 -42.84056 147.51771 19 ft 120 kts 317°
2026-05-08 11:20 -42.83578 147.51130 21 ft 77 kts 315°
2026-05-08 11:20 -42.85633 147.53958 378 ft 140 kts 315°
2026-05-08 11:20 -42.84975 147.53041 198 ft 137 kts 317°
2026-05-08 11:20 -42.84318 147.52112 31 ft 136 kts 317°
2026-05-08 11:21 -42.83747 147.51357 19 ft 91 kts 315°
2026-05-08 11:21 -42.83735 147.51342 21 ft 63 kts 315°
2026-05-08 11:23 -42.83733 147.51339 20 ft 2 kts 315°
2026-05-08 11:23 -42.83716 147.51316 20 ft 5 kts 315°
2026-05-08 11:23 -42.83680 147.51266 21 ft 10 kts 315°
2026-05-08 11:23 -42.83623 147.51188 21 ft 13 kts 315°
2026-05-08 11:24 -42.83552 147.51092 23 ft 16 kts 315°
2026-05-08 11:24 -42.83461 147.50970 19 ft 21 kts 315°
2026-05-08 11:24 -42.83355 147.50827 17 ft 15 kts 317°
2026-05-08 11:24 -42.83305 147.50702 14 ft 18 kts 269°
2026-05-08 11:25 -42.83378 147.50565 19 ft 19 kts 215°
2026-05-08 11:25 -42.83485 147.50634 21 ft 19 kts 135°
2026-05-08 11:25 -42.83551 147.50700 21 ft 9 kts 172°
2026-05-08 11:25 -42.83613 147.50638 20 ft 13 kts 225°
2026-05-08 11:26 -42.83658 147.50579 19 ft 3 kts 217°
2026-05-08 11:26 -42.83659 147.50579 19 ft 0 kts 217°